Time,TemperatureF,DewpointF,PressureIn,WindDirection,WindDirectionDegrees,WindSpeedMPH,WindSpeedGustMPH,Humidity,HourlyPrecipIn,Conditions,Clouds,dailyrainin,SoftwareType,DateUTC
2013-03-01 01:00:00,38.0,-99.9,-100.00,NW,315,4.0,-999.0,-999,-99.99,,,-99.99,,2013-03-01 08:00:00,
2013-03-01 01:53:00,38.0,-99.9,-100.00,NW,315,4.0,-999.0,-999,-99.99,,,-99.99,,2013-03-01 08:53:00,
2013-03-01 03:00:00,32.0,-99.9,-100.00,East,91,4.0,-999.0,-999,-99.99,,,-99.99,,2013-03-01 10:00:00,
2013-03-01 03:53:00,32.0,-99.9,-100.00,East,91,4.0,-999.0,-999,-99.99,,,-99.99,,2013-03-01 10:53:00,
2013-03-01 04:00:00,30.0,-99.9,-100.00,ESE,119,2.0,-999.0,-999,-99.99,,,-99.99,,2013-03-01 11:00:00,
2013-03-01 04:53:00,30.0,-99.9,-100.00,ESE,119,2.0,-999.0,-999,-99.99,,,-99.99,,2013-03-01 11:53:00,
2013-03-01 05:00:00,31.0,-99.9,-100.00,South,172,3.0,-999.0,-999,-99.99,,,-99.99,,2013-03-01 12:00:00,
2013-03-01 05:52:00,31.0,-99.9,-100.00,South,172,3.0,-999.0,-999,-99.99,,,-99.99,,2013-03-01 12:52:00,
2013-03-01 06:00:00,31.0,-99.9,-100.00,SSE,167,3.0,-999.0,-999,-99.99,,,-99.99,,2013-03-01 13:00:00,
2013-03-01 06:52:00,31.0,-99.9,-100.00,SSE,167,3.0,-999.0,-999,-99.99,,,-99.99,,2013-03-01 13:52:00,
2013-03-01 07:00:00,31.0,-99.9,-100.00,South,178,4.0,-999.0,-999,-99.99,,,-99.99,,2013-03-01 14:00:00,
2013-03-01 07:52:00,31.0,-99.9,-100.00,South,178,4.0,-999.0,-999,-99.99,,,-99.99,,2013-03-01 14:52:00,
2013-03-01 08:00:00,32.0,-99.9,-100.00,South,182,4.0,-999.0,-999,-99.99,,,-99.99,,2013-03-01 15:00:00,
2013-03-01 08:52:00,32.0,-99.9,-100.00,South,182,4.0,-999.0,-999,-99.99,,,-99.99,,2013-03-01 15:52:00,
2013-03-01 09:00:00,38.0,-99.9,-100.00,SSE,159,3.0,-999.0,-999,-99.99,,,-99.99,,2013-03-01 16:00:00,
2013-03-01 09:52:00,38.0,-99.9,-100.00,SSE,159,3.0,-999.0,-999,-99.99,,,-99.99,,2013-03-01 16:52:00,
2013-03-01 10:00:00,42.0,-99.9,-100.00,SE,130,4.0,-999.0,-999,-99.99,,,-99.99,,2013-03-01 17:00:00,
2013-03-01 10:52:00,42.0,-99.9,-100.00,SE,130,4.0,-999.0,-999,-99.99,,,-99.99,,2013-03-01 17:52:00,
2013-03-01 11:00:00,42.0,-99.9,-100.00,SSE,150,5.0,-999.0,-999,-99.99,,,-99.99,,2013-03-01 18:00:00,
2013-03-01 11:53:00,42.0,-99.9,-100.00,SSE,150,5.0,-999.0,-999,-99.99,,,-99.99,,2013-03-01 18:53:00,
2013-03-01 12:00:00,46.0,-99.9,-100.00,East,79,3.0,-999.0,-999,-99.99,,,-99.99,,2013-03-01 19:00:00,
2013-03-01 12:52:00,46.0,-99.9,-100.00,East,79,3.0,-999.0,-999,-99.99,,,-99.99,,2013-03-01 19:52:00,
2013-03-01 13:00:00,47.0,-99.9,-100.00,East,85,4.0,-999.0,-999,-99.99,,,-99.99,,2013-03-01 20:00:00,
2013-03-01 13:52:00,47.0,-99.9,-100.00,East,85,4.0,-999.0,-999,-99.99,,,-99.99,,2013-03-01 20:52:00,
2013-03-01 14:00:00,48.0,-99.9,-100.00,East,83,4.0,-999.0,-999,-99.99,,,-99.99,,2013-03-01 21:00:00,
2013-03-01 15:00:00,51.0,-99.9,-100.00,ENE,70,3.0,-999.0,-999,-99.99,,,-99.99,,2013-03-01 22:00:00,
2013-03-01 15:52:00,51.0,-99.9,-100.00,ENE,70,3.0,-999.0,-999,-99.99,,,-99.99,,2013-03-01 22:52:00,
2013-03-01 16:00:00,50.0,-99.9,-100.00,NE,51,5.0,-999.0,-999,-99.99,,,-99.99,,2013-03-01 23:00:00,
2013-03-01 16:52:00,50.0,-99.9,-100.00,NE,51,5.0,-999.0,-999,-99.99,,,-99.99,,2013-03-01 23:52:00,
2013-03-01 17:00:00,47.0,-99.9,-100.00,ENE,67,4.0,-999.0,-999,-99.99,,,-99.99,,2013-03-02 00:00:00,
2013-03-01 17:52:00,47.0,-99.9,-100.00,ENE,67,4.0,-999.0,-999,-99.99,,,-99.99,,2013-03-02 00:52:00,
2013-03-01 18:00:00,44.0,-99.9,-100.00,East,86,3.0,-999.0,-999,-99.99,,,-99.99,,2013-03-02 01:00:00,
2013-03-01 18:52:00,44.0,-99.9,-100.00,East,86,3.0,-999.0,-999,-99.99,,,-99.99,,2013-03-02 01:52:00,
2013-03-01 19:00:00,42.0,-99.9,-100.00,SE,131,2.0,-999.0,-999,-99.99,,,-99.99,,2013-03-02 02:00:00,
2013-03-01 19:53:00,42.0,-99.9,-100.00,SE,131,2.0,-999.0,-999,-99.99,,,-99.99,,2013-03-02 02:53:00,
2013-03-01 20:00:00,43.0,-99.9,-100.00,South,183,3.0,-999.0,-999,-99.99,,,-99.99,,2013-03-02 03:00:00,
2013-03-01 20:53:00,43.0,-99.9,-100.00,South,183,3.0,-999.0,-999,-99.99,,,-99.99,,2013-03-02 03:53:00,
2013-03-01 21:00:00,41.0,-99.9,-100.00,South,185,5.0,-999.0,-999,-99.99,,,-99.99,,2013-03-02 04:00:00,
2013-03-01 21:52:00,41.0,-99.9,-100.00,South,185,5.0,-999.0,-999,-99.99,,,-99.99,,2013-03-02 04:52:00,
2013-03-01 22:00:00,40.0,-99.9,-100.00,South,187,7.0,-999.0,-999,-99.99,,,-99.99,,2013-03-02 05:00:00,
2013-03-01 22:52:00,40.0,-99.9,-100.00,South,187,7.0,-999.0,-999,-99.99,,,-99.99,,2013-03-02 05:52:00,
2013-03-01 23:00:00,39.0,-99.9,-100.00,South,189,5.0,-999.0,-999,-99.99,,,-99.99,,2013-03-02 06:00:00,
2013-03-01 23:52:00,39.0,-99.9,-100.00,South,189,5.0,-999.0,-999,-99.99,,,-99.99,,2013-03-02 06:52:00,